This demonstration page uses our WeatherBlox Daily Observations layout. Learn more.

Left ArrowRight Arrow

39.92423, -83.80882

Hourly Observations for May 14, 2018

Temp ( °F °C ) Dew Point ( °F °C ) Humidity (%) Winds ( mph kmh ) Pressure ( in mb ) Visibility ( mi km ) Precip ( " mm )
12:56 am 00:56 Clear 67 19.4 63 17.2 87 87 N 8 13 29.97 1015 10 16.0934 0 0
1:56 am 01:56 Clear 66 18.9 62 16.7 87 87 Calm 29.98 1015 10 16.0934 0 0
2:56 am 02:56 Clear 64 17.8 62 16.7 93 93 SSW 3 6 29.97 1015 9 14.48406 0 0
4:56 am 04:56 Clear 66 18.9 63 17.2 90 90 SW 7 11 29.96 1015 10 16.0934 0 0
5:56 am 05:56 Clear 67 19.4 64 17.8 91 91 SW 9 15 29.96 1014 10 16.0934 0 0
6:56 am 06:56 Sunny 67 19.4 64 17.8 91 91 SW 9 15 29.96 1015 8 12.87472 0 0
7:56 am 07:56 Sunny 71 21.7 65 18.3 81 81 SW 8 13 29.98 1015 10 16.0934 0 0
8:56 am 08:56 Sunny 76 24.4 66 18.9 72 72 W 12 19 29.98 1015 10 16.0934 0 0
9:56 am 09:56 Sunny 80 26.7 67 19.4 64 64 W 14 22 29.99 1016 10 16.0934 0 0
10:56 am 10:56 Sunny 84 28.9 67 19.4 57 57 W 12 19 29.99 1016 10 16.0934 0 0
11:56 am 11:56 Partly Cloudy 82 27.8 67 19.4 60 60 N 17 28 30.01 1016 10 16.0934 0 0
12:10 pm 12:10 Mostly Cloudy 79 26 66 19 65 65 N 21 33 29.97 1015 10 16.0934 0 0
12:56 pm 12:56 Mostly Cloudy with Nearby Thunderstorms 75 23.9 61 16.1 62 62 N 23 37 30.04 1017 10 16.0934 0 0.0254
1:12 pm 13:12 Partly Cloudy 75 24 61 16 61 61 NE 17 28 30.03 1017 10 16.0934 0 0
1:56 pm 13:56 Sunny 79 26.1 61 16.1 54 54 NNE 13 20 30.01 1016 9 14.48406 0 0
2:56 pm 14:56 Mostly Sunny 80 26.7 62 16.7 54 54 E 6 9 29.99 1016 10 16.0934 0 0
3:56 pm 15:56 Sunny 84 28.9 59 15 43 43 SE 9 15 29.94 1014 10 16.0934 0 0
4:56 pm 16:56 Sunny 85 29.4 61 16.1 45 45 S 9 15 29.91 1013 9 14.48406 0 0
5:56 pm 17:56 Sunny 85 29.4 62 16.7 46 46 S 7 11 29.89 1012 10 16.0934 0 0
6:56 pm 18:56 Sunny 84 28.9 64 17.8 51 51 SSW 10 17 29.86 1011 10 16.0934 0 0
7:56 pm 19:56 Sunny 82 27.8 64 17.8 55 55 S 8 13 29.85 1011 10 16.0934 0 0
8:56 pm 20:56 Clear 78 25.6 64 17.8 62 62 Calm 29.87 1012 10 16.0934 0 0
9:56 pm 21:56 Mostly Clear 75 23.9 64 17.8 69 69 Calm 29.88 1012 10 16.0934 0 0
10:56 pm 22:56 Mostly Clear 76 24.4 65 18.3 69 69 S 7 11 29.88 1012 10 16.0934 0 0
11:56 pm 23:56 Clear 74 23.3 64 17.8 71 71 S 5 7 29.87 1012 10 16.0934 0 0

Powered by AerisWeather